Regional Weather Roundup
Issued by NWS

Home | Current Version | Previous Version | Text Only | Print | Product List | Glossary Off
Versions: 1 2 3 4 5 6 7 8 9 10 11 12 13 14 15 16 17 18 19 20 21 22 23 24 25 26 27 28 29 30 31 32 33 34 35 36 37 38 39 40 41 42 43 44 45 46 47 48 49 50

000
ASUS43 KFSD 111810
RWRSD

WEATHER ROUNDUP FOR SOUTH DAKOTA
NATIONAL WEATHER SERVICE SIOUX FALLS SD
1200 PM CST THU FEB 11 2016

NOTE: "FAIR" INDICATES FEW OR NO CLOUDS BELOW 12,000 FEET WITH NO
SIGNIFICANT WEATHER AND/OR OBSTRUCTIONS TO VISIBILITY.


SDZ001>005-009-010-012>017-111900-
NORTHWEST AND NORTH CENTRAL SOUTH DAKOTA

CITY           SKY/WX    TMP DP  RH WIND       PRES   REMARKS
BUFFALO          N/A     45  33  63 NW29G38   29.92R
FAITH            N/A     32  27  81 S12       30.01S WCI  23
MOBRIDGE       LGT SNOW  25  22  88 SE10      30.07F FOG     WCI  15
$$

SDZ012>016-024>037-041>051-057-063-072>074-111900-
SOUTHWEST AND SOUTH CENTRAL SOUTH DAKOTA

CITY           SKY/WX    TMP DP  RH WIND       PRES   REMARKS
RAPID CTY ARPT SUNNY     57  27  31 NW12G18   29.99F
PIERRE         CLOUDY    28  24  85 SE10      30.09F WCI  19
CUSTER         SUNNY     48  21  34 NW24G39   30.04S
ELLSWORTH AFB  SUNNY     57  28  33 NW40G46   29.96F
PHILIP         MOSUNNY   38  30  73 VRB3      30.03S
PINE RIDGE     CLOUDY    49  29  46 SW9       30.05S
SPEARFISH      FAIR      50  27  40 NW31G44   30.04R
WINNER         CLOUDY    33  25  72 SE13      30.08S WCI  24
$$

SDZ004>011-016>023-039-040-111900-
NORTHEAST SOUTH DAKOTA

CITY           SKY/WX    TMP DP  RH WIND       PRES   REMARKS
ABERDEEN       LGT SNOW  20  15  81 S7        30.18S WCI  11
WATERTOWN      LGT SNOW  15   9  76 S13       30.14F WCI   1
BROOKINGS      LGT SNOW  15   9  76 S13       30.16F WCI   1
SISSETON         N/A     12   7  80 S8        30.21S WCI   0
$$

SDZ017-020-022-023-036>040-048>070-111900-
SOUTHEAST SOUTH DAKOTA

CITY           SKY/WX    TMP DP  RH WIND       PRES   REMARKS
SIOUX FALLS    CLOUDY    16   9  74 S15       30.20F WCI   1
HURON          LGT SNOW  21  16  81 S9        30.17S WCI  11
CHAMBERLAIN    CLOUDY    26  22  87 SE9       30.11F WCI  16
MITCHELL       LGT SNOW  21  17  84 S13       30.18S VSB 1   WCI   9
YANKTON        CLOUDY    19  12  73 S12       30.20F WCI   7
$$

ABBREVIATIONS USED IN REMARKS
   TC - TEMPERATURE IN CELSIUS
  WCI - WIND CHILL INDEX
   HX - HEAT INDEX
  VSB - VISIBILITY




USA.gov is the U.S. government's official web portal to all federal, state and local government web resources and services.